Theta_e
292 292 291 291 290 290 289 289 289 288 288 288 287 286 286 286 287 287 287 287 286 286 286 286 286 286 286 286 286 286 286 286 286 286 286 286 286 286 286 285 286 286
291 291 290 290 290 290 289 289 288 287 287 287 287 286 286 286 286 286 286 286 286 285 285 285 285 285 284 284 285 285 284 285 284 286 284 285 285 285 284 285 285 285
291 291 290 289 288 288 288 288 288 287 286 286 286 286 286 286 285 285 285 285 284 284 284 284 284 284 284 283 284 284 283 284 284 284 283 284 284 284 284 284 284 284
290 290 289 289 289 288 288 287 287 286 286 285 285 285 285 285 284 284 284 284 283 283 283 283 283 283 282 282 283 283 283 283 283 283 282 283 283 283 283 283 283 283
289 289 288 288 288 288 287 286 286 285 285 284 284 284 284 283 283 282 282 282 282 282 282 282 282 281 281 281 282 281 281 282 282 281 281 281 282 282 282 282 281 281
288 288 288 287 287 286 285 285 285 284 284 283 283 283 282 282 282 281 281 281 281 281 281 281 280 280 280 280 280 280 280 280 280 280 279 279 280 281 281 281 280 280
287 287 286 286 285 285 284 283 283 283 282 282 282 281 281 281 281 280 280 280 280 280 279 279 279 279 279 279 279 279 279 279 279 279 278 278 279 279 280 280 279 279
286 285 285 284 283 283 283 282 282 281 281 281 280 280 280 280 280 280 279 279 279 279 279 278 278 278 278 278 277 277 277 279 278 277 277 277 278 277 278 279 278 278
285 284 284 283 282 282 281 281 280 280 281 280 280 279 279 279 278 279 278 278 278 278 278 277 277 277 277 277 276 276 276 276 277 276 276 276 276 277 277 277 277 277
284 283 283 282 281 280 280 280 280 279 280 279 279 279 278 278 278 277 277 277 277 277 277 276 276 276 276 276 276 275 275 275 276 276 276 276 276 276 276 276 276 276
283 282 281 280 280 279 278 278 278 278 278 278 278 278 278 277 277 277 276 276 276 275 275 275 275 275 275 275 275 275 275 275 275 276 276 276 276 276 276 276 276 275
282 281 280 279 279 278 278 278 278 277 277 277 277 277 276 276 275 275 275 275 275 275 274 274 274 274 274 274 274 274 274 275 276 276 276 276 276 276 276 276 275 275
281 281 280 279 278 278 278 277 277 276 276 275 275 275 275 275 275 274 275 274 274 274 273 274 273 273 273 273 273 274 275 275 275 275 275 275 275 275 275 276 275 275
281 280 279 278 278 277 277 276 275 275 275 274 274 274 274 274 273 273 274 274 273 273 273 273 273 273 273 273 273 274 274 275 275 274 274 275 275 275 275 275 275 275
280 279 278 277 276 276 275 275 274 274 274 274 273 273 273 273 273 273 272 272 273 272 272 272 272 272 272 272 272 273 274 274 274 274 274 274 274 274 275 275 275 275
278 277 277 276 276 275 275 274 274 273 273 272 272 272 272 272 272 272 272 272 272 272 272 272 272 272 272 272 274 274 274 274 274 274 274 274 273 273 273 274 274 274
277 277 276 275 275 274 274 273 273 272 272 272 271 271 271 270 271 271 271 271 271 271 271 271 272 272 272 273 275 275 275 274 274 274 274 274 273 273 272 273 273 274
277 276 275 275 274 273 272 272 272 271 271 270 270 270 270 270 270 270 270 270 270 270 270 270 271 272 273 273 274 275 275 274 274 273 273 273 273 273 273 273 272 272
277 276 275 274 273 272 271 270 270 270 270 269 269 270 270 269 270 270 269 270 269 269 269 270 270 272 272 273 274 275 275 275 273 273 273 272 273 273 272 272 272 271
276 275 274 273 272 271 270 270 269 269 270 270 269 269 269 269 269 268 269 268 268 268 268 269 269 271 272 273 274 274 275 275 273 273 273 272 272 272 271 271 271 270
275 274 273 272 271 270 270 269 269 270 269 269 269 269 269 268 268 268 268 267 266 267 267 267 268 270 272 273 273 274 274 275 273 272 272 271 271 271 271 271 271 271
274 274 272 271 270 269 269 269 269 269 268 269 268 269 269 268 268 268 266 266 266 265 265 265 267 270 271 272 272 273 274 272 271 271 270 270 270 271 271 271 271 271
274 273 271 270 270 269 268 269 269 268 268 268 267 268 268 267 267 266 266 266 265 264 264 264 265 268 270 271 272 273 272 270 270 270 270 270 270 270 271 271 271 271
274 272 271 270 269 269 268 269 269 268 267 267 267 267 267 266 266 265 265 265 264 264 264 263 264 266 269 270 271 272 272 270 270 269 269 269 269 270 271 271 271 272
273 272 271 270 269 269 269 269 268 267 267 266 266 266 266 266 265 265 264 264 264 264 265 264 263 265 268 269 270 271 271 270 270 269 269 269 269 270 271 271 271 272
272 270 270 269 269 268 267 267 267 266 265 265 265 266 265 266 265 264 263 263 264 263 262 263 263 263 265 269 270 271 272 271 270 269 268 269 269 269 269 270 271 272
Wind_Speed
8 7 8 8 7 7 7 7 6 6 6 5 5 5 5 5 6 6 7 7 8 7 7 7 7 7 6 6 6 5 5 5 5 5 5 5 5 5 5 6 6 5
9 9 8 7 7 6 6 6 6 6 6 6 5 5 5 5 6 6 6 6 7 7 7 6 6 6 6 6 6 5 5 5 5 4 5 5 4 5 5 6 5 5
8 8 8 8 7 8 7 6 6 6 6 5 5 5 4 4 5 6 6 6 6 6 6 6 6 6 6 6 6 4 4 4 4 5 5 5 4 4 5 5 5 5
9 8 8 8 7 6 6 5 5 5 5 5 5 4 4 4 5 5 5 6 5 5 5 6 6 6 6 5 5 4 4 4 4 5 5 5 4 4 5 5 5 5
8 7 7 6 6 6 5 6 6 6 5 5 5 5 5 5 5 5 5 5 5 5 5 5 5 5 5 5 5 4 4 3 4 5 5 5 5 4 4 4 5 6
7 7 7 6 5 5 5 6 5 6 6 6 5 5 5 5 4 4 4 4 4 4 4 4 5 5 4 4 4 3 4 3 4 5 5 5 5 4 4 4 5 6
7 7 7 6 6 6 6 6 6 6 5 5 5 5 4 4 4 4 4 4 4 4 4 4 4 4 4 4 4 4 4 4 4 5 5 5 5 6 5 5 5 6
7 6 5 5 6 6 6 5 5 5 4 4 5 4 4 4 4 3 3 3 3 3 3 3 3 4 4 4 4 4 4 3 4 5 5 5 5 5 5 5 5 6
7 6 6 6 6 6 6 6 5 4 3 4 4 3 3 3 2 2 2 2 1 2 2 3 3 3 4 3 4 4 5 4 4 5 5 5 6 6 6 5 6 6
7 7 7 6 6 6 7 6 4 4 3 3 3 2 2 2 2 1 1 1 2 2 3 2 3 3 3 4 4 4 5 5 5 5 5 5 5 6 6 5 6 6
8 8 7 7 7 6 6 5 5 4 3 3 2 2 1 2 1 1 1 1 1 2 3 3 3 3 4 4 4 4 5 5 5 5 5 5 6 6 6 6 6 6
8 8 8 8 7 7 6 5 4 4 4 3 2 1 1 1 2 1 1 1 1 2 2 3 3 4 4 4 5 5 5 5 5 5 5 6 6 6 6 6 6 7
7 7 7 7 7 7 6 5 5 4 3 3 2 1 1 1 1 1 0 1 1 1 2 3 3 4 4 4 4 5 5 5 6 6 6 6 5 6 6 6 6 7
6 6 6 7 7 7 6 5 5 4 3 2 2 2 1 1 1 1 1 1 1 1 2 2 3 4 3 3 4 4 5 5 6 6 6 6 6 7 6 7 7 7
6 5 5 6 7 7 6 5 5 4 3 2 2 2 1 1 1 1 1 1 1 2 2 3 3 3 2 2 3 5 5 6 6 6 7 7 7 7 7 7 7 7
6 5 5 6 6 6 6 6 5 4 3 3 3 2 2 1 1 1 1 1 1 2 2 3 3 2 2 4 6 5 6 6 6 6 7 7 8 8 7 7 7 7
7 6 6 6 6 6 4 4 5 3 3 2 2 2 3 2 2 3 2 1 2 2 3 3 3 3 4 7 8 9 7 6 6 7 7 7 7 8 8 8 7 7
7 7 6 6 6 5 5 4 4 3 3 3 3 4 3 2 3 3 2 2 1 2 3 4 4 5 7 7 9 10 9 7 6 7 7 7 7 8 8 7 8 7
8 6 5 5 5 5 5 5 4 4 4 4 5 4 3 3 3 2 2 2 2 3 4 4 5 6 7 8 9 10 10 9 7 7 7 8 8 8 8 8 7 8
8 6 6 6 6 5 5 5 5 5 5 5 4 4 3 2 2 2 2 2 2 3 4 5 6 6 8 9 10 11 11 10 7 8 8 8 8 8 8 8 8 8
8 7 6 6 6 6 5 5 5 5 5 5 4 3 3 3 2 2 2 2 2 3 3 5 5 8 9 10 11 11 11 10 7 7 7 7 7 8 9 9 9 9
8 7 6 6 7 6 6 6 6 6 6 4 3 2 2 2 1 2 3 3 3 3 3 5 6 9 9 10 11 10 12 7 6 6 7 7 8 8 8 8 8 9
9 7 7 7 7 7 6 6 7 6 5 3 3 3 3 3 3 2 2 3 3 3 4 5 5 8 9 10 10 11 9 5 6 6 7 7 8 8 8 9 9 9
9 7 7 7 7 7 7 6 6 5 4 3 4 3 3 4 3 2 3 3 3 4 4 4 5 8 11 11 11 11 9 6 6 6 7 8 8 8 8 8 10 15
7 6 7 7 7 7 7 7 6 4 4 3 2 2 3 3 3 2 3 2 3 4 6 6 6 8 11 11 11 10 8 6 6 6 7 7 8 8 8 8 10 11
5 9 7 8 7 6 4 4 4 4 4 4 3 3 3 3 3 2 3 3 3 3 4 5 5 5 6 11 11 11 10 7 6 6 7 8 8 8 9 9 9 9
Wind_Direction
96 97 94 92 86 84 86 87 85 85 81 79 76 68 61 52 42 41 41 46 43 41 38 35 31 26 17 20 13 12 24 20 14 14 354 355 350 354 347 347 336 339
91 90 92 94 92 86 85 84 84 84 79 75 75 74 64 53 46 43 38 39 43 41 35 34 28 26 20 15 4 11 14 12 10 3 347 342 345 345 345 338 329 335
98 94 93 92 94 93 89 85 86 84 85 81 75 68 64 54 48 46 42 36 39 38 33 28 24 24 17 10 357 2 7 353 0 352 338 335 336 333 336 328 329 327
97 97 98 98 99 102 101 102 98 91 87 81 71 70 69 56 53 46 45 39 37 31 29 24 21 19 10 5 355 357 353 347 2 348 334 332 329 333 328 327 320 322
107 103 100 99 100 101 101 95 87 84 84 81 77 67 58 54 48 45 40 34 37 29 22 21 18 13 6 358 348 351 345 345 355 347 330 323 320 333 323 322 320 316
109 108 109 110 109 107 100 93 88 87 84 76 68 63 59 53 54 47 43 37 29 30 20 17 15 7 358 350 336 348 338 339 333 327 321 313 317 325 316 311 314 315
118 115 113 112 109 105 100 95 87 77 72 77 73 65 58 62 58 49 40 35 28 25 23 6 8 357 347 342 337 334 330 326 318 322 317 312 317 317 319 324 321 315
123 122 121 118 116 109 102 97 88 82 84 90 90 78 69 58 58 48 35 28 24 15 10 0 352 347 336 336 332 325 324 323 319 319 316 313 317 316 323 326 320 312
135 136 134 131 123 115 106 100 96 95 94 95 87 87 77 70 55 55 41 20 9 9 1 356 350 339 339 330 323 322 317 318 318 317 316 315 316 316 319 318 316 310
146 145 143 138 125 113 111 110 110 111 100 94 98 101 109 100 94 63 53 34 11 11 1 346 344 338 328 325 320 318 317 313 314 311 305 305 306 310 314 314 310 309
154 153 147 136 124 120 121 117 122 118 108 105 120 122 126 123 126 101 58 39 31 5 346 341 338 330 321 318 316 314 312 306 302 303 303 306 305 303 305 305 305 303
158 153 145 134 127 127 129 127 121 116 113 108 102 127 133 137 101 60 102 25 13 350 335 328 326 323 316 308 312 310 301 300 299 300 302 300 299 297 299 298 295 297
157 150 141 135 135 134 130 124 117 107 111 111 98 127 191 154 116 120 25 82 326 341 320 321 316 305 298 302 301 301 304 304 302 300 297 296 295 295 291 290 291 292
151 142 138 137 132 128 124 122 116 117 121 121 135 194 165 174 157 132 181 145 277 310 301 299 294 288 290 302 313 313 309 301 304 300 297 291 289 289 288 287 286 285
137 136 135 129 129 125 124 125 129 133 140 147 173 178 171 170 186 174 208 220 227 252 265 277 272 270 275 331 317 310 303 303 300 296 294 294 293 291 289 287 286 285
138 137 145 142 134 132 134 137 141 145 151 166 177 185 185 183 181 202 196 225 242 266 271 258 260 257 255 283 291 297 303 300 299 293 291 292 293 292 290 288 286 285
140 152 156 151 139 137 137 144 149 150 161 172 182 188 192 181 195 192 197 207 226 256 271 272 261 251 267 290 297 301 303 298 294 292 287 288 286 287 289 291 289 290
151 155 161 153 142 141 145 146 142 149 169 182 191 194 192 172 190 182 199 212 226 262 267 267 271 271 279 290 298 299 300 297 291 288 286 285 285 284 287 288 291 293
151 159 164 153 151 148 145 141 145 162 181 191 201 187 175 178 179 174 207 212 240 257 270 275 272 276 280 290 296 298 300 298 289 283 281 279 281 283 286 288 290 292
154 159 161 158 150 147 148 153 158 182 192 196 189 180 173 165 168 196 220 232 247 264 270 275 276 276 283 288 295 299 299 297 287 284 280 278 279 281 285 287 288 290
157 164 161 154 150 154 158 165 170 186 190 199 186 174 164 175 188 199 212 232 253 257 267 275 274 275 281 290 296 299 298 300 291 286 280 278 277 277 280 281 286 286
156 162 158 155 157 161 167 172 177 189 198 186 162 160 159 158 198 190 209 229 241 248 259 267 273 279 287 292 295 297 302 302 289 282 280 279 275 275 273 279 280 281
161 159 158 158 162 164 173 177 179 190 191 160 157 175 169 186 185 204 214 222 234 239 250 265 272 285 289 291 294 297 303 294 284 282 278 275 275 279 281 278 275 279
161 154 156 160 164 173 173 177 178 184 168 159 169 178 180 183 193 202 215 225 232 237 245 258 270 282 288 290 293 293 292 288 286 279 277 277 280 278 279 278 279 282
151 150 158 158 163 174 169 169 171 170 145 149 179 175 177 180 197 204 212 229 233 242 255 259 266 276 284 286 286 287 288 280 276 279 280 282 287 287 285 283 284 286
145 156 146 155 161 155 143 156 158 146 144 165 182 185 179 187 184 204 206 236 248 245 244 246 255 262 269 279 283 283 283 280 278 277 281 286 289 289 289 283 281 287